EUTELSAT KONNECT VHTS

Last updated on Wed Oct 29 2025 00:02:50 GMT+0000 (Coordinated Universal Time)

1 53765U 22110A 25300.29975054 .00000028 00000+0 00000+0 0 9991 2 53765 0.0560 92.3300 0002506 95.0622 319.1546 1.00267053 4493
UTC large
Height (km)
Speed (km/s)
/
Latitude / Longitude
Inclination (degrees)
Orbital Period (minutes)
Azimuth
Elevation
Range (km)
Doppler Factor

Next 0 passes for location: London (51.5072 / 0.1276)

Sorry there are no passes over London.